owner,sensor,date,latitude,longitude,relative_humidity,qcFlag 
DISL,ioos:station:DISL:KATA:1,2014-05-01T00:00:00Z,30.2583,-88.2131,54.29,1111122 
DISL,ioos:station:DISL:KATA:1,2014-05-01T00:30:00Z,30.2583,-88.2131,57.24,1111122 
DISL,ioos:station:DISL:KATA:1,2014-05-01T01:00:00Z,30.2583,-88.2131,52.59,1111122 
DISL,ioos:station:DISL:KATA:1,2014-05-01T01:30:00Z,30.2583,-88.2131,48.51,1111122 
DISL,ioos:station:DISL:KATA:1,2014-05-01T02:00:00Z,30.2583,-88.2131,41.71,1111122 
DISL,ioos:station:DISL:KATA:1,2014-05-01T02:30:00Z,30.2583,-88.2131,45.49,1111122 
DISL,ioos:station:DISL:KATA:1,2014-05-01T03:00:00Z,30.2583,-88.2131,62.01,1111122 
DISL,ioos:station:DISL:KATA:1,2014-05-01T03:30:00Z,30.2583,-88.2131,59.06,1111122 
DISL,ioos:station:DISL:KATA:1,2014-05-01T04:00:00Z,30.2583,-88.2131,62.87,1111122 
DISL,ioos:station:DISL:KATA:1,2014-05-01T04:30:00Z,30.2583,-88.2131,67.4,1111122 
DISL,ioos:station:DISL:KATA:1,2014-05-01T05:00:00Z,30.2583,-88.2131,64.24,1111122 
DISL,ioos:station:DISL:KATA:1,2014-05-01T05:30:00Z,30.2583,-88.2131,62.06,1111122 
DISL,ioos:station:DISL:KATA:1,2014-05-01T06:00:00Z,30.2583,-88.2131,69.75,1111122 
DISL,ioos:station:DISL:KATA:1,2014-05-01T06:30:00Z,30.2583,-88.2131,74.42,1111122 
DISL,ioos:station:DISL:KATA:1,2014-05-01T07:00:00Z,30.2583,-88.2131,71.16,1111122 
DISL,ioos:station:DISL:KATA:1,2014-05-01T07:30:00Z,30.2583,-88.2131,71.87,1111122 
DISL,ioos:station:DISL:KATA:1,2014-05-01T08:00:00Z,30.2583,-88.2131,65.17,1111122 
DISL,ioos:station:DISL:KATA:1,2014-05-01T08:30:00Z,30.2583,-88.2131,66.7,1111122 
DISL,ioos:station:DISL:KATA:1,2014-05-01T09:00:00Z,30.2583,-88.2131,69.66,1111122 
DISL,ioos:station:DISL:KATA:1,2014-05-01T09:30:00Z,30.2583,-88.2131,70.78,1111122 
DISL,ioos:station:DISL:KATA:1,2014-05-01T10:00:00Z,30.2583,-88.2131,71.88,1111122 
DISL,ioos:station:DISL:KATA:1,2014-05-01T10:30:00Z,30.2583,-88.2131,70.9,1111122 
DISL,ioos:station:DISL:KATA:1,2014-05-01T11:00:00Z,30.2583,-88.2131,69.98,1111122 
DISL,ioos:station:DISL:KATA:1,2014-05-01T11:30:00Z,30.2583,-88.2131,68.65,1111122 
DISL,ioos:station:DISL:KATA:1,2014-05-01T12:00:00Z,30.2583,-88.2131,69.17,1111122 
DISL,ioos:station:DISL:KATA:1,2014-05-01T12:30:00Z,30.2583,-88.2131,75.13,1111122 
DISL,ioos:station:DISL:KATA:1,2014-05-01T13:00:00Z,30.2583,-88.2131,74.65,1111122 
DISL,ioos:station:DISL:KATA:1,2014-05-01T13:30:00Z,30.2583,-88.2131,74.62,1111122 
DISL,ioos:station:DISL:KATA:1,2014-05-01T14:00:00Z,30.2583,-88.2131,66.72,1111122 
DISL,ioos:station:DISL:KATA:1,2014-05-01T14:30:00Z,30.2583,-88.2131,62.2,1111122 
DISL,ioos:station:DISL:KATA:1,2014-05-01T15:00:00Z,30.2583,-88.2131,65.66,1111122 
DISL,ioos:station:DISL:KATA:1,2014-05-01T15:30:00Z,30.2583,-88.2131,67.36,1111122 
DISL,ioos:station:DISL:KATA:1,2014-05-01T16:00:00Z,30.2583,-88.2131,64.73,1111122 
DISL,ioos:station:DISL:KATA:1,2014-05-01T16:30:00Z,30.2583,-88.2131,56.26,1111122 
DISL,ioos:station:DISL:KATA:1,2014-05-01T17:00:00Z,30.2583,-88.2131,55.75,1111122 
DISL,ioos:station:DISL:KATA:1,2014-05-01T17:30:00Z,30.2583,-88.2131,57.64,1111122 
DISL,ioos:station:DISL:KATA:1,2014-05-01T18:00:00Z,30.2583,-88.2131,58.43,1111122 
DISL,ioos:station:DISL:KATA:1,2014-05-01T18:30:00Z,30.2583,-88.2131,60.06,1111122 
DISL,ioos:station:DISL:KATA:1,2014-05-01T19:00:00Z,30.2583,-88.2131,58.02,1111122 
DISL,ioos:station:DISL:KATA:1,2014-05-01T19:30:00Z,30.2583,-88.2131,54.79,1111122 
DISL,ioos:station:DISL:KATA:1,2014-05-01T20:00:00Z,30.2583,-88.2131,57.37,1111122 
DISL,ioos:station:DISL:KATA:1,2014-05-01T20:30:00Z,30.2583,-88.2131,53.02,1111122 
DISL,ioos:station:DISL:KATA:1,2014-05-01T21:00:00Z,30.2583,-88.2131,58.49,1111122 
DISL,ioos:station:DISL:KATA:1,2014-05-01T21:30:00Z,30.2583,-88.2131,56.17,1111122 
DISL,ioos:station:DISL:KATA:1,2014-05-01T22:00:00Z,30.2583,-88.2131,58.27,1111122 
DISL,ioos:station:DISL:KATA:1,2014-05-01T22:30:00Z,30.2583,-88.2131,60.58,1111122 
DISL,ioos:station:DISL:KATA:1,2014-05-01T23:00:00Z,30.2583,-88.2131,59.61,1111122 
DISL,ioos:station:DISL:KATA:1,2014-05-01T23:30:00Z,30.2583,-88.2131,61.65,1111122 
DISL,ioos:station:DISL:KATA:1,2014-05-02T00:00:00Z,30.2583,-88.2131,62.68,1111122 
DISL,ioos:station:DISL:KATA:1,2014-05-02T00:30:00Z,30.2583,-88.2131,62.48,1111122 
DISL,ioos:station:DISL:KATA:1,2014-05-02T01:00:00Z,30.2583,-88.2131,61.7,1111122 
DISL,ioos:station:DISL:KATA:1,2014-05-02T01:30:00Z,30.2583,-88.2131,66.33,1111122 
DISL,ioos:station:DISL:KATA:1,2014-05-02T02:00:00Z,30.2583,-88.2131,65.48,1111122 
DISL,ioos:station:DISL:KATA:1,2014-05-02T02:30:00Z,30.2583,-88.2131,69.22,1111122 
DISL,ioos:station:DISL:KATA:1,2014-05-02T03:00:00Z,30.2583,-88.2131,69.22,1111122 
DISL,ioos:station:DISL:KATA:1,2014-05-02T03:30:00Z,30.2583,-88.2131,63.6,1111122 
DISL,ioos:station:DISL:KATA:1,2014-05-02T04:00:00Z,30.2583,-88.2131,68.19,1111122 
DISL,ioos:station:DISL:KATA:1,2014-05-02T04:30:00Z,30.2583,-88.2131,62.03,1111122 
DISL,ioos:station:DISL:KATA:1,2014-05-02T05:00:00Z,30.2583,-88.2131,61.83,1111122 
DISL,ioos:station:DISL:KATA:1,2014-05-02T05:30:00Z,30.2583,-88.2131,63.7,1111122 
DISL,ioos:station:DISL:KATA:1,2014-05-02T06:00:00Z,30.2583,-88.2131,58.03,1111122 
DISL,ioos:station:DISL:KATA:1,2014-05-02T06:30:00Z,30.2583,-88.2131,52.82,1111122 
DISL,ioos:station:DISL:KATA:1,2014-05-02T07:00:00Z,30.2583,-88.2131,62.85,1111122 
DISL,ioos:station:DISL:KATA:1,2014-05-02T07:30:00Z,30.2583,-88.2131,60.33,1111122 
DISL,ioos:station:DISL:KATA:1,2014-05-02T08:00:00Z,30.2583,-88.2131,61.25,1111122 
DISL,ioos:station:DISL:KATA:1,2014-05-02T08:30:00Z,30.2583,-88.2131,56.49,1111122 
DISL,ioos:station:DISL:KATA:1,2014-05-02T09:00:00Z,30.2583,-88.2131,62.64,1111122 
DISL,ioos:station:DISL:KATA:1,2014-05-02T09:30:00Z,30.2583,-88.2131,68.36,1111122 
DISL,ioos:station:DISL:KATA:1,2014-05-02T10:00:00Z,30.2583,-88.2131,70.81,1111122 
DISL,ioos:station:DISL:KATA:1,2014-05-02T10:30:00Z,30.2583,-88.2131,71.12,1111122 
DISL,ioos:station:DISL:KATA:1,2014-05-02T11:00:00Z,30.2583,-88.2131,71.53,1111122 
DISL,ioos:station:DISL:KATA:1,2014-05-02T11:30:00Z,30.2583,-88.2131,63.54,1111122 
DISL,ioos:station:DISL:KATA:1,2014-05-02T12:00:00Z,30.2583,-88.2131,71.53,1111122 
DISL,ioos:station:DISL:KATA:1,2014-05-02T12:30:00Z,30.2583,-88.2131,67.99,1111122 
DISL,ioos:station:DISL:KATA:1,2014-05-02T13:00:00Z,30.2583,-88.2131,65.64,1111122 
DISL,ioos:station:DISL:KATA:1,2014-05-02T13:30:00Z,30.2583,-88.2131,58.39,1111122 
DISL,ioos:station:DISL:KATA:1,2014-05-02T14:00:00Z,30.2583,-88.2131,61.45,1111122 
DISL,ioos:station:DISL:KATA:1,2014-05-02T14:30:00Z,30.2583,-88.2131,61.76,1111122 
DISL,ioos:station:DISL:KATA:1,2014-05-02T15:00:00Z,30.2583,-88.2131,59.89,1111122 
DISL,ioos:station:DISL:KATA:1,2014-05-02T15:30:00Z,30.2583,-88.2131,53.59,1111122 
DISL,ioos:station:DISL:KATA:1,2014-05-02T16:00:00Z,30.2583,-88.2131,52.12,1111122 
DISL,ioos:station:DISL:KATA:1,2014-05-02T16:30:00Z,30.2583,-88.2131,55.31,1111122 
DISL,ioos:station:DISL:KATA:1,2014-05-02T17:00:00Z,30.2583,-88.2131,47.56,1111122 
DISL,ioos:station:DISL:KATA:1,2014-05-02T17:30:00Z,30.2583,-88.2131,42.22,1111122 
DISL,ioos:station:DISL:KATA:1,2014-05-02T18:00:00Z,30.2583,-88.2131,52.72,1111122 
DISL,ioos:station:DISL:KATA:1,2014-05-02T18:30:00Z,30.2583,-88.2131,48.81,1111122 
DISL,ioos:station:DISL:KATA:1,2014-05-02T19:00:00Z,30.2583,-88.2131,49.32,1111122 
DISL,ioos:station:DISL:KATA:1,2014-05-02T19:30:00Z,30.2583,-88.2131,48.17,1111122 
DISL,ioos:station:DISL:KATA:1,2014-05-02T20:00:00Z,30.2583,-88.2131,55.14,1111122 
DISL,ioos:station:DISL:KATA:1,2014-05-02T20:30:00Z,30.2583,-88.2131,57.11,1111122 
DISL,ioos:station:DISL:KATA:1,2014-05-02T21:00:00Z,30.2583,-88.2131,54.76,1111122 
DISL,ioos:station:DISL:KATA:1,2014-05-02T21:30:00Z,30.2583,-88.2131,59.52,1111122 
DISL,ioos:station:DISL:KATA:1,2014-05-02T22:00:00Z,30.2583,-88.2131,59.63,1111122 
DISL,ioos:station:DISL:KATA:1,2014-05-02T22:30:00Z,30.2583,-88.2131,62.29,1111122 
DISL,ioos:station:DISL:KATA:1,2014-05-02T23:00:00Z,30.2583,-88.2131,62.43,1111122 
DISL,ioos:station:DISL:KATA:1,2014-05-02T23:30:00Z,30.2583,-88.2131,61.99,1111122 
DISL,ioos:station:DISL:KATA:1,2014-05-03T00:00:00Z,30.2583,-88.2131,61.96,1111122 
DISL,ioos:station:DISL:KATA:1,2014-05-03T00:30:00Z,30.2583,-88.2131,62.68,1111122 
DISL,ioos:station:DISL:KATA:1,2014-05-03T01:00:00Z,30.2583,-88.2131,55.6,1111122 
DISL,ioos:station:DISL:KATA:1,2014-05-03T01:30:00Z,30.2583,-88.2131,56.9,1111122 
DISL,ioos:station:DISL:KATA:1,2014-05-03T02:00:00Z,30.2583,-88.2131,57.54,1111122 
DISL,ioos:station:DISL:KATA:1,2014-05-03T02:30:00Z,30.2583,-88.2131,53.19,1111122 
DISL,ioos:station:DISL:KATA:1,2014-05-03T03:00:00Z,30.2583,-88.2131,49.21,1111122 
DISL,ioos:station:DISL:KATA:1,2014-05-03T03:30:00Z,30.2583,-88.2131,50.73,1111122 
DISL,ioos:station:DISL:KATA:1,2014-05-03T04:00:00Z,30.2583,-88.2131,52.67,1111122 
DISL,ioos:station:DISL:KATA:1,2014-05-03T04:30:00Z,30.2583,-88.2131,52.26,1111122 
DISL,ioos:station:DISL:KATA:1,2014-05-03T05:00:00Z,30.2583,-88.2131,54.51,1111122 
DISL,ioos:station:DISL:KATA:1,2014-05-03T05:30:00Z,30.2583,-88.2131,56.41,1111122 
DISL,ioos:station:DISL:KATA:1,2014-05-03T06:00:00Z,30.2583,-88.2131,55.53,1111122 
DISL,ioos:station:DISL:KATA:1,2014-05-03T06:30:00Z,30.2583,-88.2131,59.14,1111122 
DISL,ioos:station:DISL:KATA:1,2014-05-03T07:00:00Z,30.2583,-88.2131,59.17,1111122 
DISL,ioos:station:DISL:KATA:1,2014-05-03T07:30:00Z,30.2583,-88.2131,59.11,1111122 
DISL,ioos:station:DISL:KATA:1,2014-05-03T08:00:00Z,30.2583,-88.2131,61.49,1111122 
DISL,ioos:station:DISL:KATA:1,2014-05-03T08:30:00Z,30.2583,-88.2131,58.22,1111122 
DISL,ioos:station:DISL:KATA:1,2014-05-03T09:00:00Z,30.2583,-88.2131,62.64,1111122 
DISL,ioos:station:DISL:KATA:1,2014-05-03T09:30:00Z,30.2583,-88.2131,63.29,1111122 
DISL,ioos:station:DISL:KATA:1,2014-05-03T10:00:00Z,30.2583,-88.2131,57.81,1111122 
DISL,ioos:station:DISL:KATA:1,2014-05-03T10:30:00Z,30.2583,-88.2131,61.42,1111122 
DISL,ioos:station:DISL:KATA:1,2014-05-03T11:00:00Z,30.2583,-88.2131,66.21,1111122 
DISL,ioos:station:DISL:KATA:1,2014-05-03T11:30:00Z,30.2583,-88.2131,65.64,1111122 
DISL,ioos:station:DISL:KATA:1,2014-05-03T12:00:00Z,30.2583,-88.2131,64.99,1111122 
DISL,ioos:station:DISL:KATA:1,2014-05-03T12:30:00Z,30.2583,-88.2131,61.04,1111122 
DISL,ioos:station:DISL:KATA:1,2014-05-03T13:00:00Z,30.2583,-88.2131,63.87,1111122 
DISL,ioos:station:DISL:KATA:1,2014-05-03T13:30:00Z,30.2583,-88.2131,61.25,1111122 
DISL,ioos:station:DISL:KATA:1,2014-05-03T14:00:00Z,30.2583,-88.2131,66.35,1111122 
DISL,ioos:station:DISL:KATA:1,2014-05-03T14:30:00Z,30.2583,-88.2131,61.93,1111122 
DISL,ioos:station:DISL:KATA:1,2014-05-03T15:00:00Z,30.2583,-88.2131,56.65,1111122 
DISL,ioos:station:DISL:KATA:1,2014-05-03T15:30:00Z,30.2583,-88.2131,54.68,1111122 
DISL,ioos:station:DISL:KATA:1,2014-05-03T16:00:00Z,30.2583,-88.2131,51.27,1111122 
DISL,ioos:station:DISL:KATA:1,2014-05-03T16:30:00Z,30.2583,-88.2131,44.6,1111122 
DISL,ioos:station:DISL:KATA:1,2014-05-03T17:00:00Z,30.2583,-88.2131,46.57,1111122 
DISL,ioos:station:DISL:KATA:1,2014-05-03T17:30:00Z,30.2583,-88.2131,43.92,1111122 
DISL,ioos:station:DISL:KATA:1,2014-05-03T18:00:00Z,30.2583,-88.2131,46.84,1111122 
DISL,ioos:station:DISL:KATA:1,2014-05-03T18:30:00Z,30.2583,-88.2131,48.17,1111122 
DISL,ioos:station:DISL:KATA:1,2014-05-03T19:00:00Z,30.2583,-88.2131,47.79,1111122 
DISL,ioos:station:DISL:KATA:1,2014-05-03T19:30:00Z,30.2583,-88.2131,46.78,1111122 
DISL,ioos:station:DISL:KATA:1,2014-05-03T20:00:00Z,30.2583,-88.2131,51.47,1111122 
DISL,ioos:station:DISL:KATA:1,2014-05-03T20:30:00Z,30.2583,-88.2131,50.24,1111122 
DISL,ioos:station:DISL:KATA:1,2014-05-03T21:00:00Z,30.2583,-88.2131,55.2,1111122 
DISL,ioos:station:DISL:KATA:1,2014-05-03T21:30:00Z,30.2583,-88.2131,53.88,1111122 
DISL,ioos:station:DISL:KATA:1,2014-05-03T22:00:00Z,30.2583,-88.2131,58.57,1111122 
DISL,ioos:station:DISL:KATA:1,2014-05-03T22:30:00Z,30.2583,-88.2131,55.81,1111122 
DISL,ioos:station:DISL:KATA:1,2014-05-03T23:00:00Z,30.2583,-88.2131,53.94,1111122 
DISL,ioos:station:DISL:KATA:1,2014-05-03T23:30:00Z,30.2583,-88.2131,61.49,1111122 
DISL,ioos:station:DISL:KATA:1,2014-05-04T00:00:00Z,30.2583,-88.2131,60.2,1111122 
DISL,ioos:station:DISL:KATA:1,2014-05-04T00:30:00Z,30.2583,-88.2131,69.21,1111122 
DISL,ioos:station:DISL:KATA:1,2014-05-04T01:00:00Z,30.2583,-88.2131,70.81,1111122 
DISL,ioos:station:DISL:KATA:1,2014-05-04T01:30:00Z,30.2583,-88.2131,62.45,1111122 
DISL,ioos:station:DISL:KATA:1,2014-05-04T02:00:00Z,30.2583,-88.2131,69.35,1111122 
DISL,ioos:station:DISL:KATA:1,2014-05-04T02:30:00Z,30.2583,-88.2131,69.83,1111122 
DISL,ioos:station:DISL:KATA:1,2014-05-04T03:00:00Z,30.2583,-88.2131,67.99,1111122 
DISL,ioos:station:DISL:KATA:1,2014-05-04T03:30:00Z,30.2583,-88.2131,72.11,1111122 
DISL,ioos:station:DISL:KATA:1,2014-05-04T04:00:00Z,30.2583,-88.2131,76.9,1111122 
DISL,ioos:station:DISL:KATA:1,2014-05-04T04:30:00Z,30.2583,-88.2131,80.1,1111122 
DISL,ioos:station:DISL:KATA:1,2014-05-04T05:00:00Z,30.2583,-88.2131,83.1,1111122 
DISL,ioos:station:DISL:KATA:1,2014-05-04T05:30:00Z,30.2583,-88.2131,82.9,1111122 
DISL,ioos:station:DISL:KATA:1,2014-05-04T06:00:00Z,30.2583,-88.2131,83.4,1111122 
DISL,ioos:station:DISL:KATA:1,2014-05-04T06:30:00Z,30.2583,-88.2131,83.0,1111122 
DISL,ioos:station:DISL:KATA:1,2014-05-04T07:00:00Z,30.2583,-88.2131,79.84,1111122 
DISL,ioos:station:DISL:KATA:1,2014-05-04T07:30:00Z,30.2583,-88.2131,79.63,1111122 
DISL,ioos:station:DISL:KATA:1,2014-05-04T08:00:00Z,30.2583,-88.2131,75.79,1111122 
DISL,ioos:station:DISL:KATA:1,2014-05-04T08:30:00Z,30.2583,-88.2131,75.11,1111122 
DISL,ioos:station:DISL:KATA:1,2014-05-04T09:00:00Z,30.2583,-88.2131,72.97,1111122 
DISL,ioos:station:DISL:KATA:1,2014-05-04T09:30:00Z,30.2583,-88.2131,70.52,1111122 
DISL,ioos:station:DISL:KATA:1,2014-05-04T10:00:00Z,30.2583,-88.2131,73.95,1111122 
DISL,ioos:station:DISL:KATA:1,2014-05-04T10:30:00Z,30.2583,-88.2131,75.18,1111122 
DISL,ioos:station:DISL:KATA:1,2014-05-04T11:00:00Z,30.2583,-88.2131,73.69,1111122 
DISL,ioos:station:DISL:KATA:1,2014-05-04T11:30:00Z,30.2583,-88.2131,77.03,1111122 
DISL,ioos:station:DISL:KATA:1,2014-05-04T12:00:00Z,30.2583,-88.2131,78.12,1111122 
DISL,ioos:station:DISL:KATA:1,2014-05-04T12:30:00Z,30.2583,-88.2131,74.81,1111122 
DISL,ioos:station:DISL:KATA:1,2014-05-04T13:00:00Z,30.2583,-88.2131,76.03,1111122 
DISL,ioos:station:DISL:KATA:1,2014-05-04T13:30:00Z,30.2583,-88.2131,77.8,1111122 
DISL,ioos:station:DISL:KATA:1,2014-05-04T14:00:00Z,30.2583,-88.2131,76.78,1111122 
DISL,ioos:station:DISL:KATA:1,2014-05-04T14:30:00Z,30.2583,-88.2131,78.03,1111122 
DISL,ioos:station:DISL:KATA:1,2014-05-04T15:00:00Z,30.2583,-88.2131,77.69,1111122 
DISL,ioos:station:DISL:KATA:1,2014-05-04T15:30:00Z,30.2583,-88.2131,77.64,1111122 
DISL,ioos:station:DISL:KATA:1,2014-05-04T16:00:00Z,30.2583,-88.2131,74.82,1111122 
DISL,ioos:station:DISL:KATA:1,2014-05-04T16:30:00Z,30.2583,-88.2131,73.77,1111122 
DISL,ioos:station:DISL:KATA:1,2014-05-04T17:00:00Z,30.2583,-88.2131,74.61,1111122 
DISL,ioos:station:DISL:KATA:1,2014-05-04T17:30:00Z,30.2583,-88.2131,75.63,1111122 
DISL,ioos:station:DISL:KATA:1,2014-05-04T18:00:00Z,30.2583,-88.2131,75.25,1111122 
DISL,ioos:station:DISL:KATA:1,2014-05-04T18:30:00Z,30.2583,-88.2131,74.78,1111122 
DISL,ioos:station:DISL:KATA:1,2014-05-04T19:00:00Z,30.2583,-88.2131,75.87,1111122 
DISL,ioos:station:DISL:KATA:1,2014-05-04T19:30:00Z,30.2583,-88.2131,77.02,1111122 
DISL,ioos:station:DISL:KATA:1,2014-05-04T20:00:00Z,30.2583,-88.2131,78.04,1111122 
DISL,ioos:station:DISL:KATA:1,2014-05-04T20:30:00Z,30.2583,-88.2131,75.63,1111122 
DISL,ioos:station:DISL:KATA:1,2014-05-04T21:00:00Z,30.2583,-88.2131,76.0,1111122 
DISL,ioos:station:DISL:KATA:1,2014-05-04T21:30:00Z,30.2583,-88.2131,74.23,1111122 
DISL,ioos:station:DISL:KATA:1,2014-05-04T22:00:00Z,30.2583,-88.2131,77.01,1111122 
DISL,ioos:station:DISL:KATA:1,2014-05-04T22:30:00Z,30.2583,-88.2131,77.56,1111122 
DISL,ioos:station:DISL:KATA:1,2014-05-04T23:00:00Z,30.2583,-88.2131,75.28,1111122 
DISL,ioos:station:DISL:KATA:1,2014-05-04T23:30:00Z,30.2583,-88.2131,76.85,1111122 
DISL,ioos:station:DISL:KATA:1,2014-05-05T00:00:00Z,30.2583,-88.2131,77.06,1111122 
DISL,ioos:station:DISL:KATA:1,2014-05-05T00:30:00Z,30.2583,-88.2131,77.77,1111122 
DISL,ioos:station:DISL:KATA:1,2014-05-05T01:00:00Z,30.2583,-88.2131,81.4,1111122 
DISL,ioos:station:DISL:KATA:1,2014-05-05T01:30:00Z,30.2583,-88.2131,81.7,1111122 
DISL,ioos:station:DISL:KATA:1,2014-05-05T02:00:00Z,30.2583,-88.2131,82.0,1111122 
DISL,ioos:station:DISL:KATA:1,2014-05-05T02:30:00Z,30.2583,-88.2131,83.3,1111122 
DISL,ioos:station:DISL:KATA:1,2014-05-05T03:00:00Z,30.2583,-88.2131,83.8,1111122 
DISL,ioos:station:DISL:KATA:1,2014-05-05T03:30:00Z,30.2583,-88.2131,85.0,1111122 
DISL,ioos:station:DISL:KATA:1,2014-05-05T04:00:00Z,30.2583,-88.2131,85.8,1111122 
DISL,ioos:station:DISL:KATA:1,2014-05-05T04:30:00Z,30.2583,-88.2131,85.5,1111122 
DISL,ioos:station:DISL:KATA:1,2014-05-05T05:00:00Z,30.2583,-88.2131,85.4,1111122 
DISL,ioos:station:DISL:KATA:1,2014-05-05T05:30:00Z,30.2583,-88.2131,88.2,1111122 
DISL,ioos:station:DISL:KATA:1,2014-05-05T06:00:00Z,30.2583,-88.2131,84.8,1111122 
DISL,ioos:station:DISL:KATA:1,2014-05-05T06:30:00Z,30.2583,-88.2131,83.5,1111122 
DISL,ioos:station:DISL:KATA:1,2014-05-05T07:00:00Z,30.2583,-88.2131,86.4,1111122 
DISL,ioos:station:DISL:KATA:1,2014-05-05T07:30:00Z,30.2583,-88.2131,85.5,1111122 
DISL,ioos:station:DISL:KATA:1,2014-05-05T08:00:00Z,30.2583,-88.2131,82.0,1111122 
DISL,ioos:station:DISL:KATA:1,2014-05-05T08:30:00Z,30.2583,-88.2131,81.8,1111122 
DISL,ioos:station:DISL:KATA:1,2014-05-05T09:00:00Z,30.2583,-88.2131,80.9,1111122 
DISL,ioos:station:DISL:KATA:1,2014-05-05T09:30:00Z,30.2583,-88.2131,85.2,1111122 
DISL,ioos:station:DISL:KATA:1,2014-05-05T10:00:00Z,30.2583,-88.2131,82.6,1111122 
DISL,ioos:station:DISL:KATA:1,2014-05-05T10:30:00Z,30.2583,-88.2131,80.4,1111122 
DISL,ioos:station:DISL:KATA:1,2014-05-05T11:00:00Z,30.2583,-88.2131,77.04,1111122 
DISL,ioos:station:DISL:KATA:1,2014-05-05T11:30:00Z,30.2583,-88.2131,71.77,1111122 
DISL,ioos:station:DISL:KATA:1,2014-05-05T12:00:00Z,30.2583,-88.2131,72.79,1111122 
DISL,ioos:station:DISL:KATA:1,2014-05-05T12:30:00Z,30.2583,-88.2131,69.35,1111122 
DISL,ioos:station:DISL:KATA:1,2014-05-05T13:00:00Z,30.2583,-88.2131,70.03,1111122 
DISL,ioos:station:DISL:KATA:1,2014-05-05T13:30:00Z,30.2583,-88.2131,72.48,1111122 
DISL,ioos:station:DISL:KATA:1,2014-05-05T14:00:00Z,30.2583,-88.2131,68.91,1111122 
DISL,ioos:station:DISL:KATA:1,2014-05-05T14:30:00Z,30.2583,-88.2131,71.97,1111122 
DISL,ioos:station:DISL:KATA:1,2014-05-05T15:00:00Z,30.2583,-88.2131,66.7,1111122 
DISL,ioos:station:DISL:KATA:1,2014-05-05T15:30:00Z,30.2583,-88.2131,66.01,1111122 
DISL,ioos:station:DISL:KATA:1,2014-05-05T16:00:00Z,30.2583,-88.2131,63.86,1111122 
DISL,ioos:station:DISL:KATA:1,2014-05-05T16:30:00Z,30.2583,-88.2131,66.51,1111122 
DISL,ioos:station:DISL:KATA:1,2014-05-05T17:00:00Z,30.2583,-88.2131,62.26,1111122 
DISL,ioos:station:DISL:KATA:1,2014-05-05T17:30:00Z,30.2583,-88.2131,57.43,1111122 
DISL,ioos:station:DISL:KATA:1,2014-05-05T18:00:00Z,30.2583,-88.2131,59.75,1111122 
DISL,ioos:station:DISL:KATA:1,2014-05-05T18:30:00Z,30.2583,-88.2131,53.93,1111122 
DISL,ioos:station:DISL:KATA:1,2014-05-05T19:00:00Z,30.2583,-88.2131,51.25,1111122 
DISL,ioos:station:DISL:KATA:1,2014-05-05T19:30:00Z,30.2583,-88.2131,50.06,1111122 
DISL,ioos:station:DISL:KATA:1,2014-05-05T20:00:00Z,30.2583,-88.2131,46.49,1111122 
DISL,ioos:station:DISL:KATA:1,2014-05-05T20:30:00Z,30.2583,-88.2131,49.86,1111122 
DISL,ioos:station:DISL:KATA:1,2014-05-05T21:00:00Z,30.2583,-88.2131,51.79,1111122 
DISL,ioos:station:DISL:KATA:1,2014-05-05T21:30:00Z,30.2583,-88.2131,48.33,1111122 
DISL,ioos:station:DISL:KATA:1,2014-05-05T22:00:00Z,30.2583,-88.2131,49.28,1111122 
DISL,ioos:station:DISL:KATA:1,2014-05-05T22:30:00Z,30.2583,-88.2131,52.03,1111122 
DISL,ioos:station:DISL:KATA:1,2014-05-05T23:00:00Z,30.2583,-88.2131,55.06,1111122 
DISL,ioos:station:DISL:KATA:1,2014-05-05T23:30:00Z,30.2583,-88.2131,56.14,1111122 
DISL,ioos:station:DISL:KATA:1,2014-05-06T00:00:00Z,30.2583,-88.2131,58.62,1111122 
DISL,ioos:station:DISL:KATA:1,2014-05-06T00:30:00Z,30.2583,-88.2131,64.88,1111122 
DISL,ioos:station:DISL:KATA:1,2014-05-06T01:00:00Z,30.2583,-88.2131,64.45,1111122 
DISL,ioos:station:DISL:KATA:1,2014-05-06T01:30:00Z,30.2583,-88.2131,62.68,1111122 
DISL,ioos:station:DISL:KATA:1,2014-05-06T02:00:00Z,30.2583,-88.2131,63.64,1111122 
DISL,ioos:station:DISL:KATA:1,2014-05-06T02:30:00Z,30.2583,-88.2131,64.73,1111122 
DISL,ioos:station:DISL:KATA:1,2014-05-06T03:00:00Z,30.2583,-88.2131,66.87,1111122 
DISL,ioos:station:DISL:KATA:1,2014-05-06T03:30:00Z,30.2583,-88.2131,67.99,1111122 
DISL,ioos:station:DISL:KATA:1,2014-05-06T04:00:00Z,30.2583,-88.2131,66.36,1111122 
DISL,ioos:station:DISL:KATA:1,2014-05-06T04:30:00Z,30.2583,-88.2131,67.99,1111122 
DISL,ioos:station:DISL:KATA:1,2014-05-06T05:00:00Z,30.2583,-88.2131,68.88,1111122 
DISL,ioos:station:DISL:KATA:1,2014-05-06T05:30:00Z,30.2583,-88.2131,66.39,1111122 
DISL,ioos:station:DISL:KATA:1,2014-05-06T06:00:00Z,30.2583,-88.2131,72.24,1111122 
DISL,ioos:station:DISL:KATA:1,2014-05-06T06:30:00Z,30.2583,-88.2131,72.62,1111122 
DISL,ioos:station:DISL:KATA:1,2014-05-06T07:00:00Z,30.2583,-88.2131,78.29,1111122 
DISL,ioos:station:DISL:KATA:1,2014-05-06T07:30:00Z,30.2583,-88.2131,76.29,1111122 
DISL,ioos:station:DISL:KATA:1,2014-05-06T08:00:00Z,30.2583,-88.2131,77.72,1111122 
DISL,ioos:station:DISL:KATA:1,2014-05-06T08:30:00Z,30.2583,-88.2131,74.22,1111122 
DISL,ioos:station:DISL:KATA:1,2014-05-06T09:00:00Z,30.2583,-88.2131,73.74,1111122 
DISL,ioos:station:DISL:KATA:1,2014-05-06T09:30:00Z,30.2583,-88.2131,71.8,1111122 
DISL,ioos:station:DISL:KATA:1,2014-05-06T10:00:00Z,30.2583,-88.2131,70.82,1111122 
DISL,ioos:station:DISL:KATA:1,2014-05-06T10:30:00Z,30.2583,-88.2131,72.59,1111122 
DISL,ioos:station:DISL:KATA:1,2014-05-06T11:00:00Z,30.2583,-88.2131,74.7,1111122 
DISL,ioos:station:DISL:KATA:1,2014-05-06T11:30:00Z,30.2583,-88.2131,71.71,1111122 
DISL,ioos:station:DISL:KATA:1,2014-05-06T12:00:00Z,30.2583,-88.2131,71.81,1111122 
DISL,ioos:station:DISL:KATA:1,2014-05-06T12:30:00Z,30.2583,-88.2131,70.41,1111122 
DISL,ioos:station:DISL:KATA:1,2014-05-06T13:00:00Z,30.2583,-88.2131,68.02,1111122 
DISL,ioos:station:DISL:KATA:1,2014-05-06T13:30:00Z,30.2583,-88.2131,66.29,1111122 
DISL,ioos:station:DISL:KATA:1,2014-05-06T14:00:00Z,30.2583,-88.2131,68.49,1111122 
DISL,ioos:station:DISL:KATA:1,2014-05-06T14:30:00Z,30.2583,-88.2131,67.24,1111122 
DISL,ioos:station:DISL:KATA:1,2014-05-06T15:00:00Z,30.2583,-88.2131,65.13,1111122 
DISL,ioos:station:DISL:KATA:1,2014-05-06T15:30:00Z,30.2583,-88.2131,62.44,1111122 
DISL,ioos:station:DISL:KATA:1,2014-05-06T16:00:00Z,30.2583,-88.2131,63.55,1111122 
DISL,ioos:station:DISL:KATA:1,2014-05-06T16:30:00Z,30.2583,-88.2131,67.32,1111122 
DISL,ioos:station:DISL:KATA:1,2014-05-06T17:00:00Z,30.2583,-88.2131,63.38,1111122 
DISL,ioos:station:DISL:KATA:1,2014-05-06T17:30:00Z,30.2583,-88.2131,58.11,1111122 
DISL,ioos:station:DISL:KATA:1,2014-05-06T18:00:00Z,30.2583,-88.2131,59.47,1111122 
DISL,ioos:station:DISL:KATA:1,2014-05-06T18:30:00Z,30.2583,-88.2131,59.92,1111122 
DISL,ioos:station:DISL:KATA:1,2014-05-06T19:00:00Z,30.2583,-88.2131,57.91,1111122 
DISL,ioos:station:DISL:KATA:1,2014-05-06T19:30:00Z,30.2583,-88.2131,57.71,1111122 
DISL,ioos:station:DISL:KATA:1,2014-05-06T20:00:00Z,30.2583,-88.2131,57.94,1111122 
DISL,ioos:station:DISL:KATA:1,2014-05-06T20:30:00Z,30.2583,-88.2131,56.62,1111122 
DISL,ioos:station:DISL:KATA:1,2014-05-06T21:00:00Z,30.2583,-88.2131,58.28,1111122 
DISL,ioos:station:DISL:KATA:1,2014-05-06T21:30:00Z,30.2583,-88.2131,59.75,1111122 
DISL,ioos:station:DISL:KATA:1,2014-05-06T22:00:00Z,30.2583,-88.2131,58.42,1111122 
DISL,ioos:station:DISL:KATA:1,2014-05-06T22:30:00Z,30.2583,-88.2131,61.24,1111122 
DISL,ioos:station:DISL:KATA:1,2014-05-06T23:00:00Z,30.2583,-88.2131,59.92,1111122 
DISL,ioos:station:DISL:KATA:1,2014-05-06T23:30:00Z,30.2583,-88.2131,61.58,1111122 